Location: �chenoz-la-M�line
(47.6009°N, 6.1354°E)
Time: 12:22:41
(UTC+00:00)

SKYMED 2 - Pass Details

Date: 27 January 2021
Orbit: 621 x 623 km, 97.9° (Epoch: 02 March)

Event Time Altitude Azimuth Distance (km) Brightness Sun altitude
Rises 04:17:16 0° 152° (SSE) 2,894 7.3 -28.7°
Reaches altitude 10° 04:19:28 10° 148° (SSE) 1,992 6.5 -28.3°
Maximum altitude 04:23:41 53° 72° (ENE) 767 4.2 -27.6°
Enters shadow 04:23:59 52° 55° (NE) 778 4.2 -27.6°
